Weather History for KBMQ - October, 2012

Change the Weather History Date:

Saturday, October 20, 2012

  Actual Average Record
Temperature  
Mean Temperature 68 °F -  
Max Temperature 84 °F 74 °F 90 °F (2005)
Min Temperature 55 °F 55 °F 41 °F (1999)
Cooling Degree Days 4    
Growing Degree Days 18 (Base 50)    
Moisture  
Dew Point 59 °F    
Average Humidity 66    
Maximum Humidity 82    
Minimum Humidity 55    
Precipitation  
Precipitation 0.00 in - - ()
Sea Level Pressure  
Sea Level Pressure 29.87 in    
Wind  
Wind Speed 7 mph (South)    
Max Wind Speed 18 mph    
Max Gust Speed 28 mph    
Visibility 10 miles    
Events      
Averages and records for this station are not official NWS values.
T = Trace of Precipitation, MM = Missing Value Source: NWS Daily Summary

Daily Weather History Graph

Daily Weather History Graph

Search for Another Location

Airport or City:

Trip Planner

Search our weather history database for the weather conditions in past years. The results will help you decide how hot, cold, wet, or windy it might be!

Date:

Astronomy

Oct. 20, 2012 Rise Set
Actual Time 7:39 AM CDT 6:55 PM CDT
Civil Twilight 7:14 AM CDT 7:20 PM CDT
Nautical Twilight 6:46 AM CDT 7:48 PM CDT
Astronomical Twilight 6:18 AM CDT 8:16 PM CDT
Moon 1:04 PM CDT (10/20) 11:53 PM CDT (10/20)
Length of Visible Light 12h 05m
Length of Day
11h 16m
Waxing Crescent, 34% of the Moon is Illuminated
Oct 20
Waxing Crescent
Oct 21
First Quarter
Oct 29
Full
Nov 6
Last Quarter
Nov 13
New

Hourly Weather History & Observations

Time (CDT) Temp. Heat Index Dew Point Humidity Pressure Visibility Wind Dir Wind Speed Gust Speed Precip Events Conditions
12:53 AM 55.0 °F - 43.0 °F 64% 29.93 in 10.0 mi Calm Calm - N/A   Clear
1:53 AM 57.0 °F - 41.0 °F 55% 29.91 in 10.0 mi Calm Calm - N/A   Clear
2:53 AM 55.9 °F - 41.0 °F 57% 29.91 in 10.0 mi Calm Calm - N/A   Clear
3:53 AM 55.0 °F - 41.0 °F 59% 29.89 in 10.0 mi Calm Calm - N/A   Clear
4:53 AM 57.9 °F - 43.0 °F 58% 29.88 in 10.0 mi South 3.5 mph - N/A   Clear
5:53 AM 59.0 °F - 46.0 °F 62% 29.88 in 10.0 mi South 5.8 mph - N/A   Clear
6:53 AM 60.1 °F - 50.0 °F 69% 29.89 in 10.0 mi South 5.8 mph - N/A   Clear
7:19 AM 60.1 °F - 51.1 °F 72% 29.93 in 10.0 mi South 5.8 mph - N/A   Mostly Cloudy
7:53 AM 62.1 °F - 53.1 °F 72% 29.90 in 10.0 mi South 6.9 mph - N/A   Overcast
8:53 AM 64.0 °F - 55.9 °F 75% 29.91 in 10.0 mi South 5.8 mph - N/A   Overcast
9:33 AM 66.9 °F - 57.9 °F 73% 29.95 in 10.0 mi South 10.4 mph 17.3 mph N/A   Mostly Cloudy
9:53 AM 69.1 °F - 60.1 °F 73% 29.92 in 10.0 mi South 11.5 mph - N/A   Overcast
10:14 AM 70.0 °F - 61.0 °F 73% 29.95 in 10.0 mi South 11.5 mph - N/A   Scattered Clouds
10:38 AM 72.0 °F - 63.0 °F 73% 29.94 in 10.0 mi South 12.7 mph 20.7 mph N/A   Mostly Cloudy
10:53 AM 73.0 °F - 63.0 °F 71% 29.91 in 10.0 mi South 11.5 mph - N/A   Overcast
11:53 AM 77.0 °F - 66.0 °F 69% 29.89 in 9.0 mi SSW 15.0 mph - N/A   Mostly Cloudy
12:09 PM 79.0 °F - 66.0 °F 64% 29.92 in 10.0 mi SSW 16.1 mph 27.6 mph N/A   Partly Cloudy
12:36 PM 81.0 °F 83.0 °F 66.0 °F 60% 29.91 in 10.0 mi South 16.1 mph 25.3 mph N/A   Mostly Cloudy
1:09 PM 81.0 °F 83.0 °F 66.0 °F 60% 29.90 in 10.0 mi SSW 18.4 mph 25.3 mph N/A   Scattered Clouds
1:53 PM 82.0 °F 84.1 °F 66.0 °F 58% 29.83 in 10.0 mi SSW 13.8 mph 23.0 mph N/A   Scattered Clouds
2:53 PM 82.9 °F 85.0 °F 66.0 °F 56% 29.81 in 10.0 mi South 16.1 mph 21.9 mph N/A   Partly Cloudy
3:53 PM 82.9 °F 85.0 °F 66.0 °F 56% 29.79 in 10.0 mi SSW 13.8 mph 23.0 mph N/A   Scattered Clouds
4:53 PM 82.9 °F 85.0 °F 66.0 °F 56% 29.78 in 10.0 mi South 12.7 mph 20.7 mph N/A   Partly Cloudy
5:53 PM 82.9 °F 85.0 °F 66.0 °F 56% 29.78 in 10.0 mi South 13.8 mph 19.6 mph N/A   Clear
6:53 PM 80.1 °F 82.1 °F 66.0 °F 62% 29.79 in 10.0 mi South 8.1 mph - N/A   Clear
7:53 PM 78.1 °F - 66.0 °F 66% 29.81 in 10.0 mi South 8.1 mph - N/A   Clear
8:53 PM 77.0 °F - 66.0 °F 69% 29.81 in 10.0 mi South 6.9 mph - N/A   Clear
9:53 PM 75.9 °F - 66.0 °F 71% 29.81 in 10.0 mi South 6.9 mph - N/A   Clear
10:53 PM 75.9 °F - 68.0 °F 76% 29.83 in 9.0 mi South 10.4 mph 18.4 mph N/A   Clear
11:53 PM 75.0 °F - 69.1 °F 82% 29.81 in 8.0 mi South 13.8 mph 20.7 mph N/A   Partly Cloudy